Terug naar catalogus

CZ-6A DEB

ActiefSSO
NORAD 54309·DEBRIS·🇨🇳 China

Gelanceerd Nov 11, 2022 vanaf Taiyuan Satellite Launch Center

Loading…

Volgende Passages (komende 24 uur)

TLE

VersSource: Space-Track

Epoch: Sep 14, 2026, 23:11 UTC

1 54309U 22151BC  26257.96657310  .00000260  00000-0  16251-3 0  9997
2 54309  98.8344 260.8336 0037743  65.9928 294.5188 14.12728767197379

Volg CZ-6A DEB in realtime met AllMySat

Download on the App Store